Fort Morgan, CO

10:50 PM MST on February 24, 2018 (GMT -0700)
Fort Morgan

Weather History for KFMM - October, 2013

Change the Weather History Date:

Thursday, October 10, 2013

  Actual Average (KAKO) Record (KAKO)
Temperature  
Mean Temperature 56 °F -  
Max Temperature 73 °F 67 °F 86 °F (1947)
Min Temperature 38 °F 37 °F 23 °F (1987)
Degree Days  
Heating Degree Days 10    
Growing Degree Days 6 (Base 50)    
Moisture  
Dew Point 42 °F    
Average Humidity 74    
Maximum Humidity 96    
Minimum Humidity 24    
Precipitation  
Precipitation 0.00 in - - ()
Sea Level Pressure  
Sea Level Pressure 29.73 in    
Wind  
Wind Speed 8 mph (NW)    
Max Wind Speed 29 mph    
Max Gust Speed 34 mph    
Visibility 10 miles    
Events Rain , Thunderstorm    
Averages and records for this station are not official NWS values.
T = Trace of Precipitation, MM = Missing Value Source: NWS Daily Summary

Daily Weather History Graph

Daily Weather History Graph

Search for Another Location

Airport or City:

Trip Planner

Search our weather history database for the weather conditions in past years. The results will help you decide how hot, cold, wet, or windy it might be!

Date:

Astronomy

Oct. 10, 2013 Rise Set
Actual Time 7:01 AM MDT 6:22 PM MDT
Civil Twilight 6:33 AM MDT 6:49 PM MDT
Nautical Twilight 6:02 AM MDT 7:21 PM MDT
Astronomical Twilight 5:30 AM MDT 7:52 PM MDT
Moon 12:55 PM MDT (10/10) 11:02 PM MDT (10/10)
Length of Visible Light 12h 15m
Length of Day
11h 21m
Waxing Crescent, 36% of the Moon is Illuminated
Oct 10
Waxing Crescent
Oct 11
First Quarter
Oct 18
Full
Oct 26
Last Quarter
Nov 3
New

Hourly Weather History & Observations

Time (MDT) Temp. Windchill Dew Point Humidity Pressure Visibility Wind Dir Wind Speed Gust Speed Precip Events Conditions
12:15 AM 45.5 °F 40.3 °F 39.2 °F 79% 29.96 in 10.0 mi NNE 10.4 mph - N/A   Clear
12:35 AM 45.5 °F 39.9 °F 39.2 °F 79% 29.96 in 10.0 mi North 11.5 mph - N/A   Clear
12:55 AM 45.5 °F 39.6 °F 38.8 °F 78% 29.96 in 10.0 mi North 12.7 mph - N/A   Clear
1:15 AM 44.8 °F 39.9 °F 38.7 °F 79% 29.96 in 10.0 mi North 9.2 mph - N/A   Clear
1:35 AM 44.6 °F 39.2 °F 38.7 °F 80% 29.95 in 10.0 mi NNE 10.4 mph - N/A   Clear
1:55 AM 43.7 °F 38.6 °F 38.5 °F 82% 29.94 in 10.0 mi North 9.2 mph - N/A   Clear
2:15 AM 43.0 °F 39.5 °F 38.3 °F 84% 29.94 in 10.0 mi North 5.8 mph - N/A   Clear
2:35 AM 42.8 °F - 38.3 °F 84% 29.94 in 10.0 mi Calm Calm - N/A   Clear
2:55 AM 40.1 °F 35.3 °F 37.4 °F 90% 29.94 in 10.0 mi West 6.9 mph - N/A   Clear
3:15 AM 40.5 °F 37.3 °F 37.4 °F 89% 29.93 in 10.0 mi WNW 4.6 mph - N/A   Clear
3:35 AM 41.4 °F 37.6 °F 38.7 °F 90% 29.92 in 10.0 mi WNW 5.8 mph - N/A   Clear
3:55 AM 42.3 °F 39.4 °F 39.9 °F 91% 29.91 in 10.0 mi WNW 4.6 mph - N/A   Clear
4:15 AM 41.7 °F 39.8 °F 39.0 °F 90% 29.92 in 10.0 mi West 3.5 mph - N/A   Clear
4:35 AM 41.0 °F - 38.8 °F 92% 29.90 in 10.0 mi Calm Calm - N/A   Clear
4:55 AM 40.8 °F 36.9 °F 38.7 °F 92% 29.90 in 10.0 mi West 5.8 mph - N/A   Clear
5:15 AM 40.1 °F 36.9 °F 38.1 °F 93% 29.90 in 10.0 mi West 4.6 mph - N/A   Clear
5:35 AM 39.6 °F 36.3 °F 38.3 °F 95% 29.90 in 10.0 mi WSW 4.6 mph - N/A   Clear
5:55 AM 38.8 °F 34.6 °F 37.6 °F 95% 29.89 in 7.0 mi WNW 5.8 mph - N/A   Clear
6:15 AM 39.6 °F 35.4 °F 38.5 °F 96% 29.88 in 10.0 mi WNW 5.8 mph - N/A   Clear
6:35 AM 39.6 °F - 38.3 °F 95% 29.87 in 10.0 mi Calm Calm - N/A   Clear
6:55 AM 40.1 °F - 38.3 °F 93% 29.87 in 10.0 mi Calm Calm - N/A   Clear
7:15 AM 40.5 °F - 38.1 °F 91% 29.87 in 10.0 mi Calm Calm - N/A   Clear
7:35 AM 39.0 °F - 37.4 °F 94% 29.87 in 10.0 mi Calm Calm - N/A   Clear
7:55 AM 39.9 °F - 38.5 °F 95% 29.87 in 10.0 mi Calm Calm - N/A   Clear
8:15 AM 40.6 °F - 39.4 °F 95% 29.88 in 10.0 mi Calm Calm - N/A   Clear
8:35 AM 41.4 °F - 39.9 °F 95% 29.87 in 7.0 mi Calm Calm - N/A   Clear
8:55 AM 42.8 °F 41.1 °F 40.8 °F 93% 29.85 in 10.0 mi WNW 3.5 mph - N/A   Clear
9:15 AM 44.2 °F - 41.2 °F 89% 29.85 in 10.0 mi Calm Calm - N/A   Clear
9:35 AM 45.5 °F - 41.4 °F 85% 29.85 in 10.0 mi Calm Calm - N/A   Clear
9:55 AM 47.3 °F - 41.9 °F 82% 29.84 in 10.0 mi Calm Calm - N/A   Clear
10:15 AM 48.4 °F - 42.1 °F 79% 29.83 in 10.0 mi Calm Calm - N/A   Clear
10:35 AM 50.2 °F - 42.4 °F 75% 29.81 in 10.0 mi ENE 3.5 mph - N/A   Clear
10:55 AM 52.0 °F - 42.1 °F 69% 29.80 in 10.0 mi ENE 5.8 mph - N/A   Clear
11:15 AM 52.7 °F - 42.4 °F 68% 29.78 in 10.0 mi NE 5.8 mph - N/A   Clear
11:35 AM 55.4 °F - 43.0 °F 63% 29.77 in 10.0 mi East 5.8 mph - N/A   Clear
11:55 AM 57.9 °F - 43.3 °F 58% 29.75 in 10.0 mi East 6.9 mph - N/A   Clear
12:15 PM 59.0 °F - 43.2 °F 56% 29.74 in 10.0 mi ESE 9.2 mph - N/A   Clear
12:35 PM 60.1 °F - 43.7 °F 55% 29.72 in 7.0 mi ESE 9.2 mph - N/A   Clear
12:55 PM 61.0 °F - 44.2 °F 54% 29.70 in 10.0 mi East 5.8 mph - N/A   Clear
1:15 PM 64.4 °F - 45.0 °F 49% 29.66 in 10.0 mi ENE 9.2 mph - N/A   Clear
1:35 PM 64.2 °F - 45.5 °F 51% 29.64 in 10.0 mi NE 11.5 mph - N/A   Clear
1:55 PM 66.2 °F - 45.5 °F 47% 29.62 in 10.0 mi ENE 10.4 mph - N/A   Clear
2:15 PM 67.3 °F - 45.5 °F 45% 29.61 in 10.0 mi NNE 8.1 mph - N/A   Clear
2:35 PM 68.4 °F - 44.8 °F 43% 29.59 in 10.0 mi NNE 3.5 mph - N/A   Clear
2:55 PM 69.8 °F - 43.5 °F 39% 29.59 in 10.0 mi Calm Calm - N/A   Clear
3:15 PM 70.9 °F - 39.4 °F 32% 29.57 in 10.0 mi SSW 5.8 mph 16.1 mph N/A   Clear
3:35 PM 72.5 °F - 37.8 °F 28% 29.54 in 10.0 mi SSW 9.2 mph - N/A Thunderstorm Scattered Clouds
3:55 PM 73.2 °F - 34.0 °F 24% 29.53 in 10.0 mi SSW 10.4 mph - N/A   Scattered Clouds
4:15 PM 70.3 °F - 37.4 °F 30% 29.54 in 10.0 mi West 12.7 mph 16.1 mph N/A Thunderstorm Mostly Cloudy
4:35 PM 67.1 °F - 43.9 °F 43% 29.53 in 10.0 mi WNW 17.3 mph 24.2 mph N/A   Overcast
4:55 PM 63.3 °F - 44.8 °F 51% 29.54 in 10.0 mi WNW 24.2 mph 33.4 mph N/A   Mostly Cloudy
5:15 PM 62.1 °F - 44.2 °F 52% 29.54 in 10.0 mi West 10.4 mph 27.6 mph N/A   Mostly Cloudy
5:35 PM 60.8 °F - 44.2 °F 54% 29.54 in 10.0 mi NW 15.0 mph 21.9 mph N/A   Overcast
5:55 PM 59.4 °F - 44.2 °F 57% 29.56 in 10.0 mi NNW 10.4 mph - N/A   Overcast
6:15 PM 58.5 °F - 44.4 °F 60% 29.58 in 10.0 mi North 6.9 mph - N/A   Overcast
6:35 PM 58.1 °F - 44.6 °F 61% 29.59 in 10.0 mi South 4.6 mph - N/A   Overcast
6:55 PM 57.2 °F - 45.1 °F 64% 29.58 in 10.0 mi Calm Calm - N/A   Mostly Cloudy
7:15 PM 56.7 °F - 46.2 °F 68% 29.59 in 10.0 mi South 10.4 mph - N/A Rain Rain
7:35 PM 52.7 °F - 47.8 °F 84% 29.59 in 7.0 mi South 12.7 mph 20.7 mph N/A Rain Rain
7:55 PM 50.7 °F - 47.3 °F 88% 29.56 in 10.0 mi WSW 8.1 mph - N/A Rain Light Rain
8:15 PM 48.9 °F - 45.0 °F 86% 29.55 in 10.0 mi WSW 13.8 mph 21.9 mph N/A Rain Rain
8:35 PM 47.7 °F - 44.6 °F 89% 29.51 in 10.0 mi WNW 18.4 mph 25.3 mph N/A   Drizzle
8:55 PM 48.2 °F - 42.8 °F 82% 29.52 in 10.0 mi WNW 20.7 mph 31.1 mph N/A   Scattered Clouds
9:15 PM 47.8 °F - 43.2 °F 84% 29.54 in 10.0 mi WNW 28.8 mph 34.5 mph N/A   Mostly Cloudy
9:35 PM 47.7 °F - 42.8 °F 83% 29.56 in 10.0 mi WNW 20.7 mph 25.3 mph N/A Rain Light Rain
9:55 PM 47.3 °F - 43.3 °F 86% 29.57 in 10.0 mi WNW 15.0 mph 19.6 mph N/A   Overcast
10:15 PM 47.5 °F - 44.1 °F 88% 29.60 in 10.0 mi SW 11.5 mph - N/A Rain Rain
10:35 PM 46.8 °F - 44.8 °F 93% 29.59 in 10.0 mi WSW 13.8 mph 18.4 mph N/A Rain Rain
10:55 PM 46.4 °F 40.7 °F 43.9 °F 91% 29.57 in 7.0 mi WSW 12.7 mph - N/A Rain Light Rain
11:15 PM 46.4 °F 41.5 °F 43.3 °F 89% 29.56 in 10.0 mi West 10.4 mph - N/A   Drizzle
11:35 PM 46.6 °F - 42.8 °F 87% 29.54 in 10.0 mi West 17.3 mph 21.9 mph N/A   Drizzle
11:55 PM 46.4 °F 41.1 °F 42.6 °F 87% 29.53 in 10.0 mi West 11.5 mph - N/A Rain Rain